Location: Unspecified
(0.0000°N, 0.0000°E)
Time: 18:57:26
(UTC+00:00)

Transit 4A - Pass Details

Date: 21 November 2019
Orbit: 870 x 975 km, 66.8° (Epoch: 08 December)

Event Time Altitude Azimuth Distance (km) Brightness Sun altitude
Rises 20:31:18 0° 220° (SW) 3,668 11.8 -38.4°
Reaches altitude 10° 20:34:11 10° 231° (SW) 2,718 11.0 -39.0°
Enters shadow 20:38:45 29° 275° (W) 1,705 9.6 -40.0°
Maximum altitude 20:39:36 30° 289° (WNW) 1,668 - -40.2°
Drops below altitude 10° 20:44:59 10° 348° (NNW) 2,682 - -41.4°
Sets 20:47:50 0° 359° (N) 3,611 - -42.1°
